KRH646 LFPB-EGPF

Flight info

Callsign KRH646
Flight time 1h 24m
Altitude 36000
Route ATREX DCT VESAN DCT RATUK DCT SOVAT L613 LEHOC DCT ASLIB
Aircraft A21N/M-SDE2E3FGHIJ1RWXY/LB1

Departure

Time 2026-04-22 21:02
Airport Paris-Le Bourget International Airport (LFPB)

Arrival

Time 2026-04-22 22:27
Airport Glasgow Airport (EGPF)
Time Latitude Longitude Altitude Speed Heading
2026-04-22 20:35 48.95461 2.43624 156 ft 0 kts 298°
2026-04-22 20:54 48.95466 2.43609 156 ft 3 kts 296°
2026-04-22 20:55 48.95453 2.43573 156 ft 7 kts 203°
2026-04-22 20:55 48.95413 2.43519 156 ft 10 kts 265°
2026-04-22 20:55 48.95484 2.43488 156 ft 13 kts
2026-04-22 20:55 48.95578 2.43549 156 ft 16 kts 26°
2026-04-22 20:56 48.95687 2.43628 156 ft 18 kts 14°
2026-04-22 20:56 48.95801 2.43646 156 ft 18 kts 297°
2026-04-22 20:56 48.95828 2.43547 156 ft 2 kts 269°
2026-04-22 20:56 48.95844 2.43484 156 ft 12 kts 302°
2026-04-22 20:57 48.95906 2.43309 156 ft 24 kts 295°
2026-04-22 20:57 48.95984 2.43085 155 ft 25 kts 315°
2026-04-22 20:57 48.96017 2.43007 155 ft 2 kts 317°
2026-04-22 20:57 48.96034 2.42984 155 ft 4 kts 304°
2026-04-22 20:58 48.96054 2.42939 154 ft 6 kts 307°
2026-04-22 20:58 48.96083 2.42882 154 ft 8 kts 307°
2026-04-22 20:58 48.96120 2.42808 154 ft 10 kts 308°
2026-04-22 20:58 48.96162 2.42718 153 ft 11 kts 294°
2026-04-22 20:59 48.96213 2.42616 153 ft 13 kts 324°
2026-04-22 20:59 48.96274 2.42537 153 ft 2 kts 310°
2026-04-22 20:59 48.96288 2.42513 153 ft 4 kts 311°
2026-04-22 20:59 48.96317 2.42490 153 ft 6 kts
2026-04-22 21:00 48.96364 2.42475 153 ft 8 kts 347°
2026-04-22 21:00 48.96428 2.42470 153 ft 10 kts
2026-04-22 21:00 48.96502 2.42493 152 ft 12 kts 30°
2026-04-22 21:00 48.96518 2.42510 153 ft 1 kts 48°
2026-04-22 21:01 48.96523 2.42533 153 ft 4 kts 71°
2026-04-22 21:01 48.96535 2.42581 154 ft 6 kts 65°
2026-04-22 21:01 48.96556 2.42651 154 ft 8 kts 65°
2026-04-22 21:01 48.96584 2.42741 154 ft 10 kts 65°
2026-04-22 21:02 48.96691 2.43130 152 ft 86 kts 68°
2026-04-22 21:02 48.97030 2.44408 165 ft 168 kts 66°
2026-04-22 21:02 48.97475 2.46045 1060 ft 168 kts 68°
2026-04-22 21:02 48.97808 2.47775 2075 ft 179 kts 89°
2026-04-22 21:03 48.97405 2.49664 2638 ft 203 kts 114°
2026-04-22 21:03 48.96938 2.51826 3132 ft 226 kts 99°
2026-04-22 21:03 48.96718 2.54220 3915 ft 235 kts 96°
2026-04-22 21:03 48.96535 2.56756 4806 ft 244 kts 96°
2026-04-22 21:04 48.96358 2.59365 5681 ft 251 kts 96°
2026-04-22 21:04 48.96180 2.62005 6573 ft 257 kts 95°
2026-04-22 21:04 48.96000 2.64737 7458 ft 261 kts 95°
2026-04-22 21:04 48.95817 2.67516 8379 ft 265 kts 95°
2026-04-22 21:05 48.95633 2.70325 9307 ft 269 kts 95°
2026-04-22 21:05 48.95444 2.73192 10228 ft 275 kts 95°
2026-04-22 21:05 48.95245 2.76183 10619 ft 299 kts 95°
2026-04-22 21:05 48.95026 2.79467 10951 ft 323 kts 95°
2026-04-22 21:06 48.94777 2.82934 11560 ft 334 kts 95°
2026-04-22 21:06 48.94508 2.86475 12390 ft 339 kts 95°
2026-04-22 21:06 48.94237 2.90051 13254 ft 342 kts 95°
2026-04-22 21:06 48.94054 2.93674 14105 ft 344 kts 86°
2026-04-22 21:07 48.94516 2.97196 14828 ft 346 kts 69°
2026-04-22 21:07 48.95695 3.00409 15540 ft 351 kts 52°
2026-04-22 21:07 48.97496 3.02935 16267 ft 356 kts 34°
2026-04-22 21:07 48.99764 3.04507 16982 ft 363 kts 17°
2026-04-22 21:08 49.02294 3.04934 17695 ft 371 kts 359°
2026-04-22 21:08 49.04833 3.04091 18394 ft 380 kts 341°
2026-04-22 21:08 49.07130 3.02023 19031 ft 388 kts 325°
2026-04-22 21:08 49.09222 2.99398 19673 ft 391 kts 323°
2026-04-22 21:09 49.11038 2.97083 20229 ft 392 kts 323°
2026-04-22 21:09 49.12947 2.94707 20811 ft 393 kts 325°
2026-04-22 21:09 49.15200 2.92352 21436 ft 392 kts 332°
2026-04-22 21:09 49.17582 2.90300 22067 ft 393 kts 333°
2026-04-22 21:10 49.19985 2.88268 22694 ft 395 kts 333°
2026-04-22 21:10 49.22394 2.86217 23329 ft 397 kts 333°
2026-04-22 21:10 49.24820 2.84131 23939 ft 399 kts 332°
2026-04-22 21:10 49.27203 2.82061 24460 ft 400 kts 332°
2026-04-22 21:11 49.29634 2.79935 25007 ft 401 kts 332°
2026-04-22 21:11 49.32065 2.77819 25536 ft 402 kts 332°
2026-04-22 21:11 49.34513 2.75695 26063 ft 403 kts 332°
2026-04-22 21:11 49.36956 2.73561 26584 ft 404 kts 331°
2026-04-22 21:12 49.39403 2.71416 27088 ft 406 kts 331°
2026-04-22 21:12 49.41831 2.69286 27569 ft 407 kts 331°
2026-04-22 21:12 49.44292 2.67123 28049 ft 408 kts 331°
2026-04-22 21:12 49.46769 2.64947 28519 ft 409 kts 331°
2026-04-22 21:13 49.49255 2.62765 28984 ft 410 kts 331°
2026-04-22 21:13 49.51738 2.60584 29434 ft 412 kts 331°
2026-04-22 21:13 49.54224 2.58392 29885 ft 412 kts 330°
2026-04-22 21:13 49.56675 2.56227 30458 ft 409 kts 330°
2026-04-22 21:14 49.59142 2.54052 30950 ft 406 kts 330°
2026-04-22 21:14 49.61586 2.51890 31389 ft 404 kts 330°
2026-04-22 21:14 49.64033 2.49726 31812 ft 403 kts 331°
2026-04-22 21:14 49.66474 2.47570 32206 ft 403 kts 331°
2026-04-22 21:15 49.68881 2.45436 32604 ft 402 kts 330°
2026-04-22 21:15 49.71304 2.43274 32989 ft 402 kts 330°
2026-04-22 21:15 49.73736 2.41115 33349 ft 401 kts 331°
2026-04-22 21:15 49.76161 2.38957 33724 ft 401 kts 330°
2026-04-22 21:16 49.78609 2.36907 34072 ft 400 kts 335°
2026-04-22 21:16 49.81189 2.35294 34390 ft 399 kts 339°
2026-04-22 21:16 49.83796 2.33793 34627 ft 400 kts 339°
2026-04-22 21:16 49.86382 2.32317 34840 ft 402 kts 339°
2026-04-22 21:17 49.89024 2.30798 35053 ft 403 kts 339°
2026-04-22 21:17 49.91665 2.29271 35265 ft 404 kts 339°
2026-04-22 21:17 49.94267 2.27761 35467 ft 405 kts 339°
2026-04-22 21:17 49.96909 2.26230 35681 ft 405 kts 339°
2026-04-22 21:18 49.99559 2.24694 35870 ft 406 kts 339°
2026-04-22 21:18 50.02218 2.23149 36069 ft 407 kts 339°
2026-04-22 21:18 50.04874 2.21604 36272 ft 408 kts 339°
2026-04-22 21:18 50.07536 2.20050 36354 ft 409 kts 339°
2026-04-22 21:19 50.12831 2.16955 36344 ft 408 kts 339°
2026-04-22 21:19 50.18146 2.13849 36338 ft 408 kts 339°
2026-04-22 21:20 50.23479 2.10709 36337 ft 408 kts 339°
2026-04-22 21:20 50.28800 2.07590 36336 ft 408 kts 339°
2026-04-22 21:21 50.34094 2.04470 36343 ft 408 kts 339°
2026-04-22 21:21 50.39044 2.00163 36345 ft 409 kts 322°
2026-04-22 21:22 50.43355 1.94313 36344 ft 410 kts 320°
2026-04-22 21:22 50.47628 1.88435 36344 ft 410 kts 320°
2026-04-22 21:23 50.51938 1.82532 36347 ft 411 kts 320°
2026-04-22 21:23 50.56259 1.76616 36348 ft 411 kts 320°
2026-04-22 21:24 50.60573 1.70677 36351 ft 411 kts 320°
2026-04-22 21:24 50.64869 1.64768 36348 ft 412 kts 320°
2026-04-22 21:25 50.69184 1.58794 36354 ft 412 kts 320°
2026-04-22 21:25 50.73473 1.52806 36357 ft 412 kts 320°
2026-04-22 21:26 50.77765 1.46848 36363 ft 412 kts 320°
2026-04-22 21:26 50.82083 1.40868 36373 ft 412 kts 320°
2026-04-22 21:27 50.86401 1.34861 36383 ft 413 kts 320°
2026-04-22 21:27 50.90715 1.28828 36390 ft 413 kts 320°
2026-04-22 21:28 50.95003 1.22817 36398 ft 413 kts 320°
2026-04-22 21:28 50.99305 1.16755 36400 ft 414 kts 319°
2026-04-22 21:29 51.03554 1.10750 36404 ft 414 kts 320°
2026-04-22 21:29 51.07976 1.04993 36404 ft 413 kts 325°
2026-04-22 21:30 51.12709 0.99756 36399 ft 413 kts 326°
2026-04-22 21:30 51.17447 0.94532 36403 ft 414 kts 326°
2026-04-22 21:31 51.22142 0.89303 36403 ft 414 kts 326°
2026-04-22 21:31 51.26884 0.84037 36452 ft 415 kts 326°
2026-04-22 21:32 51.31618 0.78749 36417 ft 415 kts 326°
2026-04-22 21:32 51.36361 0.73452 36424 ft 415 kts 326°
2026-04-22 21:33 51.41074 0.68162 36426 ft 416 kts 326°
2026-04-22 21:33 51.45826 0.62818 36433 ft 416 kts 326°
2026-04-22 21:34 51.50540 0.57507 36435 ft 416 kts 326°
2026-04-22 21:34 51.55280 0.52156 36435 ft 416 kts 326°
2026-04-22 21:35 51.59995 0.46815 36431 ft 417 kts 325°
2026-04-22 21:35 51.64728 0.41415 36430 ft 417 kts 325°
2026-04-22 21:36 51.69461 0.36037 36431 ft 417 kts 326°
2026-04-22 21:36 51.74205 0.30615 36431 ft 418 kts 325°
2026-04-22 21:37 51.78925 0.25202 36437 ft 418 kts 325°
2026-04-22 21:37 51.83701 0.19724 36433 ft 418 kts 325°
2026-04-22 21:38 51.88425 0.14282 36439 ft 419 kts 325°
2026-04-22 21:38 51.93177 0.08787 36435 ft 419 kts 325°
2026-04-22 21:39 51.97910 0.03305 36437 ft 420 kts 325°
2026-04-22 21:39 52.02709 -0.02140 36431 ft 420 kts 329°
2026-04-22 21:40 52.07836 -0.06715 36442 ft 420 kts 332°
2026-04-22 21:40 52.12952 -0.11191 36446 ft 420 kts 332°
2026-04-22 21:41 52.18116 -0.15724 36448 ft 420 kts 332°
2026-04-22 21:41 52.23247 -0.20237 36451 ft 421 kts 332°
2026-04-22 21:42 52.28418 -0.24802 36451 ft 421 kts 332°
2026-04-22 21:42 52.33540 -0.29338 36456 ft 421 kts 332°
2026-04-22 21:43 52.38709 -0.33914 36461 ft 421 kts 332°
2026-04-22 21:43 52.43841 -0.38482 36463 ft 422 kts 332°
2026-04-22 21:44 52.49012 -0.43097 36467 ft 422 kts 332°
2026-04-22 21:44 52.54178 -0.47721 36467 ft 422 kts 332°
2026-04-22 21:45 52.59337 -0.52363 36466 ft 423 kts 332°
2026-04-22 21:45 52.64476 -0.56988 36466 ft 423 kts 332°
2026-04-22 21:46 52.69642 -0.61633 36468 ft 423 kts 332°
2026-04-22 21:46 52.74827 -0.66312 36472 ft 424 kts 332°
2026-04-22 21:47 52.79961 -0.70982 36491 ft 424 kts 332°
2026-04-22 21:47 52.84298 -0.74935 36490 ft 424 kts 332°
2026-04-22 21:48 52.89454 -0.79624 36492 ft 425 kts 332°
2026-04-22 21:48 52.94635 -0.84354 36493 ft 425 kts 332°
2026-04-22 21:49 52.99814 -0.89099 36493 ft 425 kts 331°
2026-04-22 21:49 53.04966 -0.93832 36497 ft 425 kts 331°
2026-04-22 21:50 53.10161 -0.98617 36506 ft 426 kts 331°
2026-04-22 21:50 53.15349 -1.03413 36511 ft 426 kts 331°
2026-04-22 21:51 53.20501 -1.08219 36510 ft 426 kts 331°
2026-04-22 21:52 53.28268 -1.15423 36513 ft 426 kts 331°
2026-04-22 21:52 53.33463 -1.20275 36519 ft 427 kts 331°
2026-04-22 21:53 53.38664 -1.25138 36526 ft 427 kts 331°
2026-04-22 21:53 53.43833 -1.29985 36536 ft 428 kts 331°
2026-04-22 21:54 53.49043 -1.34877 36528 ft 428 kts 331°
2026-04-22 21:54 53.54215 -1.39734 36531 ft 428 kts 331°
2026-04-22 21:55 53.59424 -1.44682 36536 ft 429 kts 330°
2026-04-22 21:55 53.64593 -1.49612 36533 ft 429 kts 330°
2026-04-22 21:56 53.69786 -1.54586 36530 ft 429 kts 330°
2026-04-22 21:56 53.74781 -1.60073 36525 ft 429 kts 319°
2026-04-22 21:57 53.79219 -1.66831 36533 ft 429 kts 318°
2026-04-22 21:57 53.83634 -1.73633 36527 ft 429 kts 318°
2026-04-22 21:58 53.88032 -1.80409 36529 ft 429 kts 318°
2026-04-22 21:58 53.92446 -1.87253 36529 ft 429 kts 318°
2026-04-22 21:59 53.96864 -1.94108 36529 ft 429 kts 317°
2026-04-22 21:59 54.01255 -2.00913 36532 ft 429 kts 319°
2026-04-22 22:00 54.05993 -2.07108 36525 ft 430 kts 323°
2026-04-22 22:00 54.10788 -2.13182 36530 ft 428 kts 323°
2026-04-22 22:01 54.15573 -2.19257 36550 ft 429 kts 323°
2026-04-22 22:01 54.20328 -2.25329 36533 ft 429 kts 323°
2026-04-22 22:02 54.25129 -2.31462 36539 ft 430 kts 323°
2026-04-22 22:02 54.29910 -2.37587 36536 ft 429 kts 323°
2026-04-22 22:03 54.34669 -2.43699 36544 ft 430 kts 322°
2026-04-22 22:03 54.39444 -2.49862 36538 ft 431 kts 322°
2026-04-22 22:04 54.44245 -2.56083 36541 ft 431 kts 322°
2026-04-22 22:04 54.48993 -2.62230 36402 ft 423 kts 322°
2026-04-22 22:04 54.51357 -2.65302 35432 ft 429 kts 322°
2026-04-22 22:05 54.53774 -2.68453 34388 ft 437 kts 322°
2026-04-22 22:05 54.56200 -2.71614 33386 ft 439 kts 321°
2026-04-22 22:05 54.58614 -2.74775 32425 ft 441 kts 321°
2026-04-22 22:05 54.61047 -2.77966 31758 ft 437 kts 321°
2026-04-22 22:06 54.63458 -2.81118 31143 ft 433 kts 321°
2026-04-22 22:06 54.65843 -2.84244 30565 ft 428 kts 321°
2026-04-22 22:06 54.68203 -2.87339 29916 ft 422 kts 321°
2026-04-22 22:06 54.70546 -2.90407 29307 ft 418 kts 321°
2026-04-22 22:07 54.72850 -2.93441 28793 ft 415 kts 321°
2026-04-22 22:07 54.75107 -2.96432 28254 ft 411 kts 321°
2026-04-22 22:07 54.77379 -2.99436 27723 ft 408 kts 321°
2026-04-22 22:07 54.79626 -3.02415 27186 ft 405 kts 321°
2026-04-22 22:08 54.81854 -3.05352 26659 ft 404 kts 322°
2026-04-22 22:08 54.84248 -3.07949 26201 ft 408 kts 328°
2026-04-22 22:08 54.86724 -3.10378 25894 ft 409 kts 329°
2026-04-22 22:08 54.89213 -3.12789 25628 ft 409 kts 329°
2026-04-22 22:09 54.91701 -3.15207 25390 ft 409 kts 329°
2026-04-22 22:09 54.94181 -3.17635 25147 ft 408 kts 329°
2026-04-22 22:09 54.96619 -3.20040 24915 ft 408 kts 329°
2026-04-22 22:09 54.99086 -3.22476 24680 ft 407 kts 329°
2026-04-22 22:10 55.01569 -3.24925 24450 ft 407 kts 329°
2026-04-22 22:10 55.04032 -3.27355 24059 ft 404 kts 329°
2026-04-22 22:10 55.06448 -3.29748 23512 ft 403 kts 329°
2026-04-22 22:10 55.08883 -3.32160 22932 ft 401 kts 329°
2026-04-22 22:11 55.11308 -3.34568 22377 ft 401 kts 329°
2026-04-22 22:11 55.13739 -3.36983 21805 ft 400 kts 329°
2026-04-22 22:11 55.16155 -3.39401 21256 ft 398 kts 329°
2026-04-22 22:11 55.18558 -3.41819 20742 ft 396 kts 329°
2026-04-22 22:12 55.20941 -3.44202 20235 ft 394 kts 329°
2026-04-22 22:12 55.23305 -3.46549 19709 ft 394 kts 329°
2026-04-22 22:12 55.25697 -3.48936 19174 ft 395 kts 329°
2026-04-22 22:12 55.28098 -3.51328 18606 ft 397 kts 329°
2026-04-22 22:13 55.30507 -3.53737 18006 ft 395 kts 329°
2026-04-22 22:13 55.32853 -3.56102 17448 ft 391 kts 329°
2026-04-22 22:13 55.35194 -3.58482 16905 ft 386 kts 329°
2026-04-22 22:13 55.37518 -3.60840 16378 ft 381 kts 329°
2026-04-22 22:14 55.39809 -3.63160 15871 ft 377 kts 329°
2026-04-22 22:14 55.42048 -3.65421 15373 ft 373 kts 329°
2026-04-22 22:14 55.44294 -3.67685 14864 ft 369 kts 329°
2026-04-22 22:14 55.46509 -3.69926 14377 ft 366 kts 329°
2026-04-22 22:15 55.48710 -3.72167 13822 ft 363 kts 329°
2026-04-22 22:15 55.50897 -3.74382 13314 ft 360 kts 329°
2026-04-22 22:15 55.52866 -3.77017 12862 ft 353 kts 311°
2026-04-22 22:15 55.54160 -3.80601 12602 ft 340 kts 291°
2026-04-22 22:16 55.54957 -3.84238 12428 ft 328 kts 288°
2026-04-22 22:16 55.55684 -3.87654 12271 ft 318 kts 289°
2026-04-22 22:16 55.56488 -3.91234 12071 ft 308 kts 290°
2026-04-22 22:16 55.57301 -3.94733 11601 ft 310 kts 291°
2026-04-22 22:17 55.58135 -3.98247 11194 ft 309 kts 291°
2026-04-22 22:17 55.58967 -4.01741 10809 ft 307 kts 291°
2026-04-22 22:17 55.59787 -4.05167 10414 ft 306 kts 291°
2026-04-22 22:17 55.60624 -4.08657 10009 ft 303 kts 291°
2026-04-22 22:18 55.61437 -4.12026 9573 ft 302 kts 291°
2026-04-22 22:18 55.62264 -4.15450 9133 ft 301 kts 291°
2026-04-22 22:18 55.63084 -4.18857 8738 ft 300 kts 292°
2026-04-22 22:18 55.63899 -4.22243 8340 ft 299 kts 292°
2026-04-22 22:19 55.64715 -4.25638 7962 ft 297 kts 292°
2026-04-22 22:19 55.65515 -4.28979 7630 ft 294 kts 292°
2026-04-22 22:19 55.66303 -4.32287 7404 ft 286 kts 292°
2026-04-22 22:19 55.67057 -4.35441 7282 ft 277 kts 292°
2026-04-22 22:20 55.67800 -4.38566 7147 ft 266 kts 291°
2026-04-22 22:20 55.68504 -4.41536 6991 ft 257 kts 292°
2026-04-22 22:20 55.69179 -4.44390 6744 ft 253 kts 292°
2026-04-22 22:20 55.69859 -4.47265 6416 ft 252 kts 292°
2026-04-22 22:21 55.70534 -4.50118 6103 ft 250 kts 292°
2026-04-22 22:21 55.71208 -4.52963 5747 ft 251 kts 292°
2026-04-22 22:21 55.71884 -4.55827 5382 ft 252 kts 292°
2026-04-22 22:21 55.72558 -4.58686 5060 ft 251 kts 292°
2026-04-22 22:22 55.73229 -4.61531 4748 ft 248 kts 291°
2026-04-22 22:22 55.73921 -4.64316 4441 ft 247 kts 298°
2026-04-22 22:22 55.75076 -4.66509 4106 ft 243 kts 333°
2026-04-22 22:22 55.76655 -4.67187 3858 ft 228 kts
2026-04-22 22:23 55.78049 -4.66329 3653 ft 206 kts 42°
2026-04-22 22:23 55.78956 -4.64523 3374 ft 187 kts 65°
2026-04-22 22:23 55.79309 -4.62445 3285 ft 167 kts 82°
2026-04-22 22:23 55.79502 -4.60507 3181 ft 152 kts 84°
2026-04-22 22:24 55.79744 -4.58723 2683 ft 159 kts 70°
2026-04-22 22:24 55.80311 -4.56828 1922 ft 182 kts 63°
2026-04-22 22:24 55.81000 -4.54963 1654 ft 171 kts 55°
2026-04-22 22:24 55.81693 -4.53572 1457 ft 136 kts 50°
2026-04-22 22:25 55.82297 -4.52449 1237 ft 120 kts 49°
2026-04-22 22:25 55.82861 -4.51398 1091 ft 118 kts 49°
2026-04-22 22:25 55.83427 -4.50343 928 ft 118 kts 49°
2026-04-22 22:25 55.84002 -4.49271 770 ft 120 kts 49°
2026-04-22 22:26 55.84569 -4.48210 596 ft 119 kts 49°
2026-04-22 22:26 55.85147 -4.47134 428 ft 119 kts 48°
2026-04-22 22:26 55.85728 -4.46094 247 ft 118 kts 51°
2026-04-22 22:26 55.86289 -4.45023 90 ft 118 kts 49°
2026-04-22 22:27 55.86822 -4.44028 34 ft 101 kts 47°
2026-04-22 22:27 55.87129 -4.43457 34 ft 33 kts 47°
2026-04-22 22:27 55.87233 -4.43227 34 ft 16 kts 84°
2026-04-22 22:27 55.87222 -4.43120 34 ft 5 kts 111°
2026-04-22 22:28 55.87207 -4.43052 34 ft 7 kts 101°
2026-04-22 22:28 55.87207 -4.42950 34 ft 9 kts 90°
2026-04-22 22:28 55.87207 -4.42818 34 ft 12 kts 90°
2026-04-22 22:28 55.87205 -4.42734 34 ft 0 kts 97°
2026-04-22 22:29 55.87194 -4.42717 34 ft 5 kts 157°
2026-04-22 22:29 55.87153 -4.42755 34 ft 9 kts 206°
2026-04-22 22:29 55.87077 -4.42802 34 ft 14 kts 198°
2026-04-22 22:29 55.87019 -4.42835 34 ft 0 kts 198°
2026-04-22 22:30 55.87011 -4.42840 34 ft 3 kts 198°
2026-04-22 22:30 55.86973 -4.42862 34 ft 8 kts 198°
2026-04-22 22:30 55.86904 -4.42902 34 ft 13 kts 202°
2026-04-22 22:30 55.86820 -4.42995 34 ft 16 kts 191°
2026-04-22 22:31 55.86731 -4.42965 34 ft 13 kts 163°
2026-04-22 22:31 55.86645 -4.42901 34 ft 13 kts 103°
2026-04-22 22:31 55.86654 -4.42865 34 ft 0 kts 54°
2026-04-22 22:31 55.86656 -4.42850 34 ft 2 kts 75°
2026-04-22 22:32 55.86659 -4.42832 34 ft 0 kts 73°